Tracking 31027 objects as of 19-Jul-2025
HD Live streaming from Space Station
objects crossing your sky now

WSF-M

Track WSF-M now!
10-day predictions
WSF-M is classified as:


NORAD ID: 59481
Int'l Code: 2024-070A
Perigee: 827.1 km
Apogee: 833.5 km
Inclination: 98.7 °
Period: 101.4 minutes
Semi major axis: 7201 km
RCS: Unknown
Launch date: April 11, 2024
Source: United States (US)
Launch site: AIR FORCE WESTERN TEST RANGE (AFWTR)
Your satellite tracking list
Your tracking list is empty




NASA's NSSDC Master Catalog

Two Line Element Set (TLE):
1 59481U 24070A   25199.74904230  .00000037  00000-0  37585-4 0  9997
2 59481  98.7178 207.1977 0004404 190.8965 169.2117 14.20651748 65750
Source of the keplerian elements: AFSPC